KUG3 WIHH-WIDD

Flight info

Callsign KUG3
Flight time 1h 15m
Altitude 40000
Route DOLTA A585 GUSKO G579 PLB T25 IGUTU
Aircraft A346/H-SDE2E3FGHIJ3J4J5M1RWXY/LB1D1

Departure

Time 2026-05-07 10:57
Airport Halim Perdanakusuma International Airport (WIHH)

Arrival

Time 2026-05-07 12:12
Airport Hang Nadim International Airport (WIDD)
Time Latitude Longitude Altitude Speed Heading
2026-05-07 10:32 -6.26168 106.89787 101 ft 0 kts 25°
2026-05-07 10:50 -6.26166 106.89789 102 ft 1 kts 25°
2026-05-07 10:51 -6.26147 106.89797 103 ft 4 kts 25°
2026-05-07 10:51 -6.26122 106.89823 103 ft 6 kts 63°
2026-05-07 10:51 -6.26121 106.89865 103 ft 5 kts 135°
2026-05-07 10:51 -6.26164 106.89889 104 ft 8 kts 155°
2026-05-07 10:52 -6.26219 106.89914 105 ft 9 kts 155°
2026-05-07 10:52 -6.26266 106.89914 105 ft 8 kts 220°
2026-05-07 10:52 -6.26310 106.89867 105 ft 11 kts 240°
2026-05-07 10:52 -6.26351 106.89788 104 ft 14 kts 245°
2026-05-07 10:53 -6.26397 106.89685 103 ft 18 kts 245°
2026-05-07 10:53 -6.26449 106.89568 103 ft 21 kts 245°
2026-05-07 10:53 -6.26513 106.89426 102 ft 24 kts 245°
2026-05-07 10:53 -6.26584 106.89271 103 ft 25 kts 245°
2026-05-07 10:54 -6.26660 106.89107 105 ft 27 kts 245°
2026-05-07 10:54 -6.26740 106.88933 105 ft 28 kts 245°
2026-05-07 10:54 -6.26825 106.88749 103 ft 30 kts 245°
2026-05-07 10:54 -6.26914 106.88556 102 ft 31 kts 245°
2026-05-07 10:55 -6.27008 106.88353 100 ft 32 kts 245°
2026-05-07 10:55 -6.27102 106.88147 103 ft 32 kts 245°
2026-05-07 10:55 -6.27163 106.87948 104 ft 23 kts 268°
2026-05-07 10:55 -6.27208 106.87917 103 ft 5 kts 91°
2026-05-07 10:56 -6.27185 106.87951 102 ft 6 kts 65°
2026-05-07 10:56 -6.27145 106.88048 102 ft 40 kts 67°
2026-05-07 10:56 -6.26929 106.88525 100 ft 108 kts 65°
2026-05-07 10:56 -6.26530 106.89391 104 ft 163 kts 65°
2026-05-07 10:57 -6.26020 106.90531 400 ft 186 kts 65°
2026-05-07 10:57 -6.25481 106.91700 1115 ft 187 kts 64°
2026-05-07 10:57 -6.25144 106.92988 1715 ft 196 kts 94°
2026-05-07 10:57 -6.25553 106.94297 2380 ft 201 kts 121°
2026-05-07 10:58 -6.26383 106.95448 2929 ft 206 kts 126°
2026-05-07 10:58 -6.27259 106.96636 3284 ft 222 kts 119°
2026-05-07 10:58 -6.27771 106.98158 3546 ft 242 kts 88°
2026-05-07 10:58 -6.27219 106.99784 3910 ft 259 kts 51°
2026-05-07 10:59 -6.25708 107.00788 4383 ft 271 kts 17°
2026-05-07 10:59 -6.23833 107.01074 5016 ft 276 kts
2026-05-07 10:59 -6.21890 107.01147 5682 ft 281 kts
2026-05-07 10:59 -6.19919 107.01150 6176 ft 284 kts
2026-05-07 11:00 -6.17952 107.01140 6642 ft 286 kts
2026-05-07 11:00 -6.15953 107.01098 7107 ft 291 kts
2026-05-07 11:00 -6.13943 107.01041 7578 ft 293 kts
2026-05-07 11:00 -6.11905 107.00985 8059 ft 295 kts
2026-05-07 11:01 -6.09851 107.00923 8552 ft 298 kts
2026-05-07 11:01 -6.07785 107.00859 9045 ft 299 kts
2026-05-07 11:01 -6.05712 107.00802 9547 ft 301 kts
2026-05-07 11:01 -6.03614 107.00742 10025 ft 303 kts
2026-05-07 11:02 -6.01474 107.00678 10489 ft 314 kts 359°
2026-05-07 11:02 -5.99295 107.00212 10942 ft 329 kts 337°
2026-05-07 11:02 -5.97396 106.98880 11420 ft 342 kts 314°
2026-05-07 11:02 -5.96098 106.96868 11909 ft 353 kts 291°
2026-05-07 11:03 -5.95570 106.94442 12418 ft 361 kts 275°
2026-05-07 11:03 -5.95424 106.91884 12921 ft 371 kts 271°
2026-05-07 11:03 -5.95350 106.89263 13437 ft 380 kts 271°
2026-05-07 11:03 -5.95291 106.86576 13895 ft 388 kts 270°
2026-05-07 11:04 -5.95233 106.83840 14360 ft 396 kts 270°
2026-05-07 11:04 -5.95171 106.81037 14817 ft 404 kts 270°
2026-05-07 11:04 -5.95130 106.79150 15130 ft 408 kts 271°
2026-05-07 11:04 -5.95050 106.75294 15764 ft 417 kts 270°
2026-05-07 11:05 -5.95011 106.73355 16077 ft 421 kts 270°
2026-05-07 11:05 -5.94951 106.70405 16563 ft 427 kts 271°
2026-05-07 11:05 -5.94891 106.67428 17060 ft 432 kts 271°
2026-05-07 11:05 -5.94835 106.64405 17563 ft 436 kts 271°
2026-05-07 11:06 -5.94780 106.61350 18071 ft 439 kts 271°
2026-05-07 11:06 -5.94727 106.58276 18518 ft 442 kts 270°
2026-05-07 11:06 -5.94676 106.55181 18965 ft 445 kts 270°
2026-05-07 11:06 -5.94607 106.52058 19407 ft 448 kts 273°
2026-05-07 11:07 -5.93917 106.49013 19821 ft 450 kts 294°
2026-05-07 11:07 -5.92178 106.46400 20244 ft 451 kts 315°
2026-05-07 11:07 -5.89671 106.44533 20695 ft 451 kts 330°
2026-05-07 11:07 -5.86979 106.42895 21141 ft 453 kts 329°
2026-05-07 11:08 -5.84291 106.41204 21550 ft 457 kts 328°
2026-05-07 11:08 -5.81618 106.39465 21975 ft 460 kts 328°
2026-05-07 11:08 -5.78942 106.37684 22382 ft 463 kts 328°
2026-05-07 11:08 -5.76253 106.35872 22772 ft 466 kts 327°
2026-05-07 11:09 -5.73556 106.34048 23186 ft 469 kts 327°
2026-05-07 11:09 -5.70854 106.32213 23556 ft 471 kts 327°
2026-05-07 11:09 -5.68135 106.30360 23879 ft 473 kts 327°
2026-05-07 11:09 -5.65389 106.28486 24205 ft 475 kts 327°
2026-05-07 11:10 -5.62649 106.26615 24535 ft 477 kts 327°
2026-05-07 11:10 -5.59895 106.24737 24863 ft 479 kts 327°
2026-05-07 11:10 -5.57131 106.22852 25192 ft 481 kts 327°
2026-05-07 11:10 -5.54350 106.20954 25520 ft 484 kts 327°
2026-05-07 11:11 -5.51593 106.19072 25826 ft 486 kts 327°
2026-05-07 11:11 -5.48791 106.17163 26147 ft 488 kts 327°
2026-05-07 11:11 -5.45974 106.15241 26483 ft 490 kts 327°
2026-05-07 11:11 -5.43136 106.13302 26780 ft 492 kts 327°
2026-05-07 11:12 -5.40299 106.11366 27081 ft 494 kts 327°
2026-05-07 11:12 -5.37449 106.09427 27380 ft 496 kts 327°
2026-05-07 11:12 -5.34584 106.07478 27677 ft 498 kts 327°
2026-05-07 11:12 -5.31708 106.05518 28000 ft 500 kts 327°
2026-05-07 11:13 -5.28828 106.03553 28427 ft 498 kts 327°
2026-05-07 11:13 -5.25973 106.01604 28912 ft 496 kts 327°
2026-05-07 11:13 -5.23122 105.99661 29353 ft 495 kts 327°
2026-05-07 11:13 -5.20279 105.97724 29788 ft 494 kts 327°
2026-05-07 11:14 -5.17434 105.95787 30170 ft 492 kts 327°
2026-05-07 11:14 -5.14602 105.93860 30541 ft 491 kts 327°
2026-05-07 11:14 -5.11723 105.92020 30911 ft 489 kts 330°
2026-05-07 11:14 -5.08786 105.90315 31307 ft 487 kts 331°
2026-05-07 11:15 -5.05837 105.88633 31695 ft 486 kts 331°
2026-05-07 11:15 -5.02902 105.86965 32081 ft 484 kts 332°
2026-05-07 11:15 -4.99967 105.85299 32459 ft 483 kts 332°
2026-05-07 11:15 -4.97037 105.83635 32848 ft 482 kts 331°
2026-05-07 11:16 -4.94118 105.81977 33230 ft 481 kts 331°
2026-05-07 11:16 -4.91209 105.80321 33618 ft 480 kts 331°
2026-05-07 11:16 -4.88313 105.78671 33996 ft 479 kts 330°
2026-05-07 11:16 -4.85416 105.77020 34303 ft 478 kts 330°
2026-05-07 11:17 -4.82530 105.75373 34632 ft 477 kts 330°
2026-05-07 11:17 -4.79655 105.73735 34991 ft 475 kts 330°
2026-05-07 11:17 -4.76784 105.72099 35349 ft 473 kts 330°
2026-05-07 11:17 -4.73922 105.70468 35662 ft 473 kts 330°
2026-05-07 11:18 -4.71062 105.68839 35928 ft 473 kts 330°
2026-05-07 11:18 -4.68202 105.67212 36248 ft 472 kts 330°
2026-05-07 11:18 -4.65348 105.65590 36598 ft 470 kts 330°
2026-05-07 11:18 -4.62506 105.63975 36939 ft 469 kts 330°
2026-05-07 11:19 -4.59675 105.62363 37322 ft 467 kts 330°
2026-05-07 11:19 -4.56861 105.60762 37769 ft 463 kts 330°
2026-05-07 11:19 -4.54107 105.59196 38165 ft 461 kts 330°
2026-05-07 11:19 -4.51317 105.57610 38427 ft 461 kts 330°
2026-05-07 11:20 -4.48518 105.56018 38589 ft 463 kts 330°
2026-05-07 11:20 -4.45676 105.54401 38777 ft 463 kts 330°
2026-05-07 11:20 -4.42913 105.52830 38975 ft 464 kts 330°
2026-05-07 11:20 -4.40103 105.51233 39130 ft 465 kts 330°
2026-05-07 11:21 -4.37285 105.49629 39237 ft 467 kts 330°
2026-05-07 11:21 -4.34457 105.48020 39403 ft 467 kts 330°
2026-05-07 11:21 -4.31628 105.46413 39581 ft 467 kts 331°
2026-05-07 11:21 -4.28796 105.44804 39729 ft 468 kts 330°
2026-05-07 11:22 -4.23116 105.41575 39827 ft 469 kts 331°
2026-05-07 11:22 -4.17437 105.38349 39827 ft 470 kts 330°
2026-05-07 11:23 -4.11747 105.35115 39830 ft 469 kts 331°
2026-05-07 11:23 -4.06055 105.31882 39827 ft 470 kts 330°
2026-05-07 11:24 -4.00392 105.28660 39829 ft 471 kts 331°
2026-05-07 11:24 -3.94665 105.25409 39830 ft 472 kts 331°
2026-05-07 11:25 -3.88941 105.22168 39831 ft 472 kts 331°
2026-05-07 11:25 -3.83214 105.18950 39828 ft 472 kts 331°
2026-05-07 11:26 -3.77507 105.15739 39832 ft 472 kts 331°
2026-05-07 11:26 -3.71772 105.12512 39831 ft 472 kts 331°
2026-05-07 11:27 -3.66040 105.09284 39833 ft 472 kts 331°
2026-05-07 11:27 -3.60312 105.06060 39829 ft 472 kts 331°
2026-05-07 11:28 -3.54577 105.02833 39833 ft 472 kts 331°
2026-05-07 11:28 -3.48845 104.99608 39832 ft 472 kts 331°
2026-05-07 11:29 -3.43148 104.96403 39833 ft 472 kts 331°
2026-05-07 11:29 -3.37416 104.93180 39833 ft 472 kts 331°
2026-05-07 11:30 -3.31674 104.89951 39833 ft 473 kts 332°
2026-05-07 11:30 -3.25930 104.86720 39833 ft 474 kts 331°
2026-05-07 11:31 -3.20178 104.83486 39831 ft 474 kts 331°
2026-05-07 11:31 -3.14423 104.80250 39828 ft 474 kts 331°
2026-05-07 11:32 -3.05800 104.75400 39824 ft 474 kts 331°
2026-05-07 11:33 -3.00086 104.72188 39814 ft 474 kts 331°
2026-05-07 11:33 -2.94255 104.69075 39816 ft 473 kts 336°
2026-05-07 11:34 -2.88091 104.66759 39815 ft 473 kts 344°
2026-05-07 11:34 -2.81661 104.65366 39817 ft 473 kts 353°
2026-05-07 11:35 -2.75102 104.64881 39836 ft 472 kts 358°
2026-05-07 11:35 -2.68525 104.64682 39834 ft 472 kts 359°
2026-05-07 11:36 -2.61994 104.64486 39831 ft 472 kts 359°
2026-05-07 11:36 -2.55409 104.64278 39832 ft 473 kts 359°
2026-05-07 11:37 -2.48831 104.64068 39835 ft 473 kts 359°
2026-05-07 11:37 -2.42246 104.63857 39833 ft 473 kts 359°
2026-05-07 11:38 -2.35651 104.63644 39830 ft 473 kts 359°
2026-05-07 11:38 -2.29119 104.63434 39832 ft 473 kts 359°
2026-05-07 11:39 -2.22535 104.63223 39836 ft 473 kts 359°
2026-05-07 11:39 -2.15923 104.63012 39831 ft 476 kts 359°
2026-05-07 11:40 -2.09281 104.62798 39833 ft 477 kts 358°
2026-05-07 11:40 -2.02641 104.62583 39833 ft 477 kts 358°
2026-05-07 11:41 -1.96036 104.62371 39831 ft 477 kts 358°
2026-05-07 11:41 -1.89392 104.62156 39831 ft 477 kts 358°
2026-05-07 11:42 -1.82751 104.61941 39828 ft 478 kts 359°
2026-05-07 11:42 -1.76093 104.61724 39830 ft 478 kts 359°
2026-05-07 11:43 -1.69435 104.61512 39832 ft 479 kts 359°
2026-05-07 11:43 -1.62815 104.61300 39833 ft 479 kts 359°
2026-05-07 11:44 -1.56141 104.61088 39692 ft 479 kts 359°
2026-05-07 11:44 -1.52822 104.60980 39449 ft 478 kts 359°
2026-05-07 11:44 -1.49495 104.60873 39215 ft 476 kts 359°
2026-05-07 11:44 -1.46191 104.60766 38973 ft 475 kts 359°
2026-05-07 11:45 -1.42891 104.60660 38742 ft 475 kts 359°
2026-05-07 11:45 -1.39585 104.60554 38509 ft 475 kts 359°
2026-05-07 11:45 -1.36275 104.60447 38257 ft 476 kts 359°
2026-05-07 11:45 -1.32961 104.60340 38001 ft 476 kts 359°
2026-05-07 11:46 -1.29648 104.60233 37730 ft 477 kts 359°
2026-05-07 11:46 -1.26339 104.60126 37469 ft 477 kts 359°
2026-05-07 11:46 -1.23017 104.60018 37214 ft 477 kts 359°
2026-05-07 11:46 -1.19694 104.59910 36923 ft 478 kts 359°
2026-05-07 11:47 -1.16369 104.59803 36548 ft 478 kts 359°
2026-05-07 11:47 -1.13039 104.59695 36051 ft 479 kts 359°
2026-05-07 11:47 -1.09707 104.59510 35468 ft 480 kts 356°
2026-05-07 11:47 -1.06388 104.59151 34905 ft 481 kts 353°
2026-05-07 11:48 -1.03079 104.58611 34314 ft 482 kts 350°
2026-05-07 11:48 -0.99847 104.57901 33720 ft 483 kts 347°
2026-05-07 11:48 -0.96608 104.57004 33043 ft 484 kts 344°
2026-05-07 11:48 -0.93401 104.55944 32452 ft 484 kts 342°
2026-05-07 11:49 -0.90221 104.54849 31838 ft 484 kts 342°
2026-05-07 11:49 -0.87037 104.53746 31195 ft 484 kts 342°
2026-05-07 11:49 -0.83856 104.52647 30547 ft 484 kts 342°
2026-05-07 11:49 -0.80665 104.51547 29835 ft 486 kts 342°
2026-05-07 11:50 -0.77449 104.50440 29018 ft 488 kts 342°
2026-05-07 11:50 -0.74242 104.49337 28271 ft 489 kts 342°
2026-05-07 11:50 -0.71021 104.48230 27517 ft 489 kts 342°
2026-05-07 11:50 -0.67807 104.47126 26954 ft 486 kts 342°
2026-05-07 11:51 -0.65688 104.46398 26661 ft 481 kts 342°
2026-05-07 11:51 -0.62543 104.45317 26165 ft 477 kts 342°
2026-05-07 11:51 -0.59409 104.44240 25640 ft 474 kts 342°
2026-05-07 11:51 -0.56309 104.43175 25123 ft 470 kts 342°
2026-05-07 11:52 -0.53216 104.42113 24585 ft 468 kts 342°
2026-05-07 11:52 -0.50146 104.41060 24104 ft 464 kts 342°
2026-05-07 11:52 -0.47101 104.40017 23645 ft 460 kts 342°
2026-05-07 11:52 -0.44084 104.38983 23146 ft 456 kts 342°
2026-05-07 11:53 -0.41095 104.37958 22637 ft 451 kts 342°
2026-05-07 11:53 -0.38140 104.36944 22145 ft 447 kts 342°
2026-05-07 11:53 -0.35221 104.35942 21690 ft 442 kts 342°
2026-05-07 11:53 -0.32364 104.34960 21258 ft 437 kts 343°
2026-05-07 11:54 -0.29499 104.33977 20799 ft 433 kts 343°
2026-05-07 11:54 -0.26653 104.33000 20348 ft 430 kts 343°
2026-05-07 11:54 -0.23804 104.32076 19945 ft 433 kts 345°
2026-05-07 11:54 -0.20866 104.31304 19818 ft 437 kts 348°
2026-05-07 11:55 -0.17884 104.30685 19817 ft 438 kts 351°
2026-05-07 11:55 -0.14953 104.30118 19531 ft 432 kts 351°
2026-05-07 11:55 -0.11958 104.29545 18855 ft 433 kts 351°
2026-05-07 11:55 -0.09043 104.28988 18301 ft 431 kts 351°
2026-05-07 11:56 -0.06107 104.28425 17744 ft 427 kts 351°
2026-05-07 11:56 -0.03194 104.27867 17171 ft 424 kts 351°
2026-05-07 11:56 -0.00323 104.27314 16848 ft 418 kts 351°
2026-05-07 11:56 0.02528 104.26766 16663 ft 415 kts 351°
2026-05-07 11:57 0.05357 104.26221 16053 ft 414 kts 351°
2026-05-07 11:57 0.08068 104.25700 15434 ft 413 kts 351°
2026-05-07 11:57 0.10883 104.25158 14701 ft 411 kts 351°
2026-05-07 11:57 0.13672 104.24621 14107 ft 404 kts 351°
2026-05-07 11:58 0.16422 104.24091 13457 ft 400 kts 351°
2026-05-07 11:58 0.19131 104.23569 12857 ft 393 kts 351°
2026-05-07 11:58 0.21788 104.23057 12359 ft 385 kts 350°
2026-05-07 11:58 0.24396 104.22554 11893 ft 377 kts 350°
2026-05-07 11:59 0.26947 104.22062 11477 ft 372 kts 350°
2026-05-07 11:59 0.29490 104.21572 11013 ft 371 kts 350°
2026-05-07 11:59 0.31989 104.21089 10835 ft 359 kts 350°
2026-05-07 11:59 0.34406 104.20622 10703 ft 346 kts 350°
2026-05-07 12:00 0.36704 104.20178 10568 ft 335 kts 350°
2026-05-07 12:00 0.38949 104.19745 10445 ft 323 kts 350°
2026-05-07 12:00 0.41117 104.19326 10320 ft 311 kts 351°
2026-05-07 12:00 0.43192 104.18926 10206 ft 296 kts 351°
2026-05-07 12:01 0.45185 104.18541 10149 ft 289 kts 351°
2026-05-07 12:01 0.47150 104.18163 10054 ft 285 kts 351°
2026-05-07 12:01 0.49106 104.17786 9781 ft 286 kts 351°
2026-05-07 12:01 0.51060 104.17411 9433 ft 286 kts 350°
2026-05-07 12:02 0.53009 104.17036 9107 ft 285 kts 350°
2026-05-07 12:02 0.54959 104.16661 8797 ft 284 kts 350°
2026-05-07 12:02 0.56892 104.16293 8494 ft 282 kts 350°
2026-05-07 12:02 0.58815 104.15932 8195 ft 280 kts 350°
2026-05-07 12:03 0.60702 104.15577 7914 ft 279 kts 350°
2026-05-07 12:03 0.62606 104.15218 7629 ft 278 kts 350°
2026-05-07 12:03 0.64508 104.14860 7330 ft 277 kts 350°
2026-05-07 12:03 0.66400 104.14503 7037 ft 276 kts 350°
2026-05-07 12:04 0.68289 104.14148 6748 ft 275 kts 350°
2026-05-07 12:04 0.70169 104.13803 6453 ft 275 kts 351°
2026-05-07 12:04 0.72055 104.13476 6155 ft 274 kts 351°
2026-05-07 12:04 0.73902 104.13161 5851 ft 273 kts 351°
2026-05-07 12:05 0.75774 104.12841 5571 ft 272 kts 351°
2026-05-07 12:05 0.77632 104.12472 5274 ft 271 kts 343°
2026-05-07 12:05 0.79365 104.11747 4979 ft 271 kts 330°
2026-05-07 12:05 0.80956 104.10736 4697 ft 270 kts 326°
2026-05-07 12:06 0.82482 104.09692 4414 ft 269 kts 325°
2026-05-07 12:06 0.84022 104.08631 4127 ft 268 kts 326°
2026-05-07 12:06 0.85561 104.07580 3829 ft 267 kts 326°
2026-05-07 12:06 0.87100 104.06536 3547 ft 267 kts 326°
2026-05-07 12:07 0.88634 104.05500 3266 ft 266 kts 326°
2026-05-07 12:07 0.90180 104.04459 2987 ft 265 kts 326°
2026-05-07 12:07 0.91707 104.03432 2689 ft 264 kts 326°
2026-05-07 12:07 0.93221 104.02414 2536 ft 257 kts 326°
2026-05-07 12:08 0.94669 104.01441 2476 ft 246 kts 326°
2026-05-07 12:08 0.96060 104.00508 2419 ft 235 kts 328°
2026-05-07 12:08 0.97561 104.00025 2307 ft 224 kts
2026-05-07 12:08 0.99040 104.00432 2331 ft 224 kts 31°
2026-05-07 12:09 1.00308 104.01337 2335 ft 224 kts 42°
2026-05-07 12:09 1.01445 104.02378 2339 ft 218 kts 44°
2026-05-07 12:09 1.02543 104.03406 2215 ft 215 kts 43°
2026-05-07 12:09 1.03648 104.04405 1975 ft 211 kts 43°
2026-05-07 12:10 1.04735 104.05367 1664 ft 206 kts 42°
2026-05-07 12:10 1.05790 104.06296 1368 ft 196 kts 43°
2026-05-07 12:10 1.06720 104.07119 1112 ft 184 kts 43°
2026-05-07 12:10 1.07642 104.07944 892 ft 172 kts 44°
2026-05-07 12:11 1.08508 104.08742 618 ft 164 kts 43°
2026-05-07 12:11 1.09329 104.09483 413 ft 156 kts 41°
2026-05-07 12:11 1.10152 104.10187 243 ft 154 kts 40°
2026-05-07 12:11 1.10963 104.10888 110 ft 153 kts 41°
2026-05-07 12:12 1.11651 104.11488 101 ft 105 kts 41°
2026-05-07 12:12 1.12072 104.11859 93 ft 66 kts 41°
2026-05-07 12:12 1.12351 104.12100 90 ft 40 kts 41°
2026-05-07 12:12 1.12552 104.12216 87 ft 26 kts 16°
2026-05-07 12:13 1.12668 104.12242 83 ft 12 kts 359°
2026-05-07 12:13 1.12684 104.12190 84 ft 10 kts 236°
2026-05-07 12:13 1.12633 104.12134 87 ft 12 kts 223°
2026-05-07 12:13 1.12570 104.12075 88 ft 13 kts 223°
2026-05-07 12:14 1.12496 104.12015 90 ft 15 kts 219°
2026-05-07 12:14 1.12416 104.11951 90 ft 16 kts 219°
2026-05-07 12:14 1.12328 104.11874 94 ft 18 kts 224°
2026-05-07 12:14 1.12233 104.11783 94 ft 20 kts 224°
2026-05-07 12:15 1.12134 104.11688 97 ft 21 kts 224°
2026-05-07 12:15 1.12081 104.11633 96 ft 1 kts 249°
2026-05-07 12:15 1.12075 104.11613 97 ft 4 kts 253°
2026-05-07 12:15 1.12064 104.11581 97 ft 6 kts 244°
2026-05-07 12:16 1.12049 104.11533 99 ft 5 kts 262°
2026-05-07 12:16 1.12050 104.11502 99 ft 0 kts 276°
2026-05-07 12:16 1.12051 104.11495 99 ft 2 kts 276°
2026-05-07 12:16 1.12051 104.11472 99 ft 4 kts 260°
2026-05-07 12:17 1.12057 104.11440 98 ft 6 kts 298°
2026-05-07 12:17 1.12057 104.11433 98 ft 0 kts 316°
2026-05-07 12:17 1.12058 104.11432 98 ft 0 kts 314°
2026-05-07 12:18 1.12104 104.11437 100 ft 0 kts 310°